This is the latest recevied weather packets stored in our database for station/object KC3ROS. If no packets are shown the sender has not sent any weather packets the latest 10 day(s).
| Time | Temp. | Humidity | Pressure | Rain* | Wind** | Luminosity | Snow |
|---|---|---|---|---|---|---|---|
| 1778064040 | 12.78° C | 99% | 1004.3 hPa | 3.05 mm | - | 1 W/m² | - |
| 1778063737 | 12.78° C | 99% | 1004.4 hPa | 3.56 mm | - | 1 W/m² | - |
| 1778063434 | 12.78° C | 99% | 1004.6 hPa | 4.32 mm | - | 0 W/m² | - |
| 1778063132 | 12.78° C | 99% | 1004.5 hPa | 3.56 mm | - | 0 W/m² | - |
| 1778062829 | 12.78° C | 99% | 1004.5 hPa | 3.05 mm | - | 0 W/m² | - |
| 1778062526 | 12.78° C | 99% | 1004.5 hPa | 3.05 mm | - | 0 W/m² | - |
| 1778062223 | 12.78° C | 99% | 1004.5 hPa | 3.56 mm | - | 0 W/m² | - |
| 1778061921 | 12.78° C | 99% | 1004.4 hPa | 4.32 mm | - | 0 W/m² | - |
| 1778061619 | 12.78° C | 99% | 1004.4 hPa | 2.29 mm | - | 0 W/m² | - |
| 1778061318 | 12.78° C | 99% | 1004.3 hPa | 1.27 mm | - | 0 W/m² | - |
| 1778061013 | 12.78° C | 99% | 1004.3 hPa | 1.27 mm | - | 0 W/m² | - |
| 1778060712 | 12.78° C | 99% | 1004.3 hPa | 1.78 mm | - | 0 W/m² | - |
| 1778060409 | 12.78° C | 99% | 1004.2 hPa | 1.27 mm | - | 0 W/m² | - |
| 1778060107 | 12.78° C | 99% | 1004.4 hPa | 1.78 mm | - | 0 W/m² | - |
| 1778059804 | 12.78° C | 99% | 1004.6 hPa | 3.05 mm | - | 0 W/m² | - |
| 1778059502 | 12.78° C | 99% | 1004.5 hPa | 3.56 mm | - | 0 W/m² | - |
| 1778059198 | 12.78° C | 99% | 1004.5 hPa | 3.56 mm | - | 0 W/m² | - |
| 1778058897 | 12.78° C | 99% | 1004.7 hPa | 3.56 mm | - | 0 W/m² | - |
| 1778058593 | 12.78° C | 99% | 1004.7 hPa | 3.05 mm | - | 0 W/m² | - |
| 1778058292 | 12.78° C | 99% | 1004.7 hPa | 1.78 mm | - | 0 W/m² | - |
| 1778057987 | 12.78° C | 99% | 1005 hPa | 2.29 mm | - | 0 W/m² | - |
| 1778057684 | 12.78° C | 99% | 1004.9 hPa | 2.29 mm | - | 0 W/m² | - |
| 1778057381 | 12.78° C | 99% | 1005.1 hPa | 2.29 mm | - | 0 W/m² | - |
| 1778057078 | 12.78° C | 99% | 1005 hPa | 3.05 mm | - | 0 W/m² | - |
| 1778056774 | 12.78° C | 99% | 1005.2 hPa | 3.05 mm | - | 0 W/m² | - |
* Rain latest hour (hover to see other rain measurements)
** Current wind speed in m/s (hover to see current wind gust speed)